Jackson, TN

5:28 PM CST on November 23, 2017 (GMT -0600)
McKellar-Sipes Regional

Weather History for KMKL - July, 2013

Change the Weather History Date:

Saturday, July 27, 2013

  Actual Average Record
Temperature  
Mean Temperature 77 °F 80 °F  
Max Temperature 85 °F 91 °F 107 °F (1952)
Min Temperature 69 °F 68 °F 57 °F (1962)
Degree Days  
Heating Degree Days 0 0  
Month to date heating degree days 0 0  
Since 1 June heating degree days 0 2  
Since 1 July heating degree days 0 0  
Cooling Degree Days 12 15  
Month to date cooling degree days 330 398  
Year to date cooling degree days 873 952  
Since 1 June cooling degree days 673 737  
Growing Degree Days 26 (Base 50)    
Moisture  
Dew Point 66 °F    
Average Humidity 73    
Maximum Humidity 97    
Minimum Humidity 48    
Precipitation  
Precipitation T in 0.14 in 3.67 in (1998)
Month to date precipitation 4.91 3.97  
Year to date precipitation 42.67 32.35  
Snow  
Snow 0.00 in - - ()
Month to date snowfall 0.0  
Since 1 June snowfall 0.0  
Snow Depth 0.00 in    
Sea Level Pressure  
Sea Level Pressure 29.95 in    
Wind  
Wind Speed 4 mph (NNW)    
Max Wind Speed 13 mph    
Max Gust Speed 16 mph    
Visibility 9 miles    
Events Rain    
T = Trace of Precipitation, MM = Missing Value Source: NWS Daily Summary

Daily Weather History Graph

Daily Weather History Graph

Search for Another Location

Airport or City:

Trip Planner

Search our weather history database for the weather conditions in past years. The results will help you decide how hot, cold, wet, or windy it might be!

Date:

Astronomy

Jul. 27, 2013 Rise Set
Actual Time 6:00 AM CDT 8:03 PM CDT
Civil Twilight 5:31 AM CDT 8:32 PM CDT
Nautical Twilight 4:57 AM CDT 9:06 PM CDT
Astronomical Twilight 4:19 AM CDT 9:43 PM CDT
Moon 11:05 PM CDT (7/27) 11:26 AM CDT (7/27)
Length of Visible Light 15h 00m
Length of Day
14h 03m
Waning Gibbous, 70% of the Moon is Illuminated
Jul 27
Waning Gibbous
Jul 29
Last Quarter
Aug 6
New
Aug 14
First Quarter
Aug 20
Full

Hourly Weather History & Observations

Time (CDT) Temp. Heat Index Dew Point Humidity Pressure Visibility Wind Dir Wind Speed Gust Speed Precip Events Conditions
12:53 AM 70.0 °F - 66.9 °F 90% 30.00 in 10.0 mi Calm Calm - N/A   Overcast
1:53 AM 71.1 °F - 66.9 °F 87% 30.00 in 10.0 mi Calm Calm - 0.00 in Rain Light Rain
2:53 AM 69.1 °F - 68.0 °F 96% 29.98 in 5.0 mi Calm Calm - 0.00 in   Overcast
3:53 AM 70.0 °F - 66.9 °F 90% 29.97 in 8.0 mi Calm Calm - N/A   Overcast
4:53 AM 69.1 °F - 66.9 °F 93% 29.96 in 7.0 mi Calm Calm - N/A   Overcast
5:53 AM 69.1 °F - 66.9 °F 93% 29.96 in 6.0 mi Calm Calm - N/A   Overcast
6:53 AM 70.0 °F - 68.0 °F 93% 29.97 in 6.0 mi Calm Calm - N/A   Overcast
7:53 AM 72.0 °F - 68.0 °F 87% 29.98 in 10.0 mi North 3.5 mph - N/A   Overcast
8:53 AM 73.9 °F - 69.1 °F 85% 29.98 in 10.0 mi North 4.6 mph - N/A   Overcast
9:53 AM 77.0 °F - 68.0 °F 74% 29.98 in 10.0 mi North 5.8 mph - N/A   Overcast
10:53 AM 81.0 °F 83.3 °F 66.9 °F 62% 29.97 in 10.0 mi Variable 4.6 mph - N/A   Partly Cloudy
11:53 AM 81.0 °F 83.0 °F 66.0 °F 60% 29.97 in 10.0 mi WNW 5.8 mph - N/A   Partly Cloudy
12:53 PM 81.0 °F 82.2 °F 63.0 °F 54% 29.96 in 10.0 mi WNW 4.6 mph - N/A   Clear
1:53 PM 82.0 °F 83.4 °F 64.0 °F 54% 29.94 in 10.0 mi NW 4.6 mph - N/A   Scattered Clouds
2:53 PM 82.0 °F 83.8 °F 64.9 °F 56% 29.92 in 10.0 mi NW 6.9 mph - N/A   Scattered Clouds
3:53 PM 84.9 °F 86.6 °F 64.9 °F 51% 29.91 in 10.0 mi Variable 3.5 mph - N/A   Clear
4:53 PM 84.0 °F 84.9 °F 63.0 °F 49% 29.89 in 10.0 mi WNW 3.5 mph - N/A   Clear
5:53 PM 84.0 °F 84.9 °F 63.0 °F 49% 29.90 in 10.0 mi NW 8.1 mph - N/A   Clear
6:53 PM 82.9 °F 85.0 °F 66.0 °F 56% 29.89 in 10.0 mi NW 3.5 mph - 0.00 in Rain Light Rain
7:53 PM 79.0 °F - 66.0 °F 64% 29.91 in 10.0 mi Calm Calm - 0.00 in   Clear
8:53 PM 75.0 °F - 66.9 °F 76% 29.92 in 10.0 mi West 3.5 mph - N/A   Partly Cloudy
9:53 PM 73.9 °F - 66.0 °F 76% 29.95 in 10.0 mi NNE 5.8 mph - 0.00 in   Mostly Cloudy
10:53 PM 71.1 °F - 64.9 °F 81% 29.95 in 10.0 mi North 3.5 mph - 0.00 in   Partly Cloudy
11:53 PM 72.0 °F - 66.0 °F 81% 29.96 in 10.0 mi North 3.5 mph - N/A   Overcast